Tracking 35331 objects as of 15-Sep-2026
HD Live streaming from Space Station
objects crossing your sky now

CZ-4 DEB


CZ-4 DEB is no longer on orbit


NORAD ID: 37611
Int'l Code: 1990-081CX
Launch date: September 3, 1990
Source: People's Republic of China (PRC)
Launch site: Taiyaun Space Center, China (TSC)
Decay date: 2021-11-02

Note: This is SATELLITE DEBRIS
Your satellite tracking list
Your tracking list is empty




NASA's NSSDC Master Catalog

Two Line Element Set (TLE):
1 37611U 90081CX  11280.04472320  .00008691  00000-0  37610-2 0  9993
2 37611  98.9571   5.1348 0035156 194.1668 174.2013 14.24218774442485
Source of the keplerian elements: AFSPC